Weather History for KMIB - September, 2013

Change the Weather History Date:

Saturday, September 14, 2013

  Actual Average Record
Temperature  
Mean Temperature 65 °F -  
Max Temperature 74 °F 68 °F 76 °F (2006)
Min Temperature 53 °F 44 °F 23 °F (2007)
Growing Degree Days 15 (Base 50)    
Moisture  
Dew Point 51 °F    
Average Humidity 61    
Maximum Humidity 78    
Minimum Humidity 49    
Precipitation  
Precipitation 0.00 in - - ()
Sea Level Pressure  
Sea Level Pressure 29.87 in    
Wind  
Wind Speed 9 mph (ENE)    
Max Wind Speed 20 mph    
Max Gust Speed 30 mph    
Visibility 10 miles    
Events Rain    
Averages and records for this station are not official NWS values.
T = Trace of Precipitation, MM = Missing Value Source: NWS Daily Summary

Daily Weather History Graph

Daily Weather History Graph

Search for Another Location

Airport or City:

Trip Planner

Search our weather history database for the weather conditions in past years. The results will help you decide how hot, cold, wet, or windy it might be!

Date:

Astronomy

Sep. 14, 2013 Rise Set
Actual Time 7:21 AM CDT 7:59 PM CDT
Civil Twilight 6:49 AM CDT 8:30 PM CDT
Nautical Twilight 6:12 AM CDT 9:08 PM CDT
Astronomical Twilight 5:32 AM CDT 9:47 PM CDT
Moon 5:00 PM CDT (9/14) 1:35 AM CDT (9/14)
Length of Visible Light 13h 41m
Length of Day
12h 38m
Waxing Gibbous, 72% of the Moon is Illuminated
Sep 14
Waxing Gibbous
Sep 19
Full
Sep 26
Last Quarter
Oct 4
New
Oct 11
First Quarter

Hourly Weather History & Observations

Time (CDT) Temp. Dew Point Humidity Pressure Visibility Wind Dir Wind Speed Gust Speed Precip Events Conditions
12:58 AM 63.7 °F 48.4 °F 57% 29.80 in 10.0 mi South 9.2 mph - N/A   Clear
1:58 AM 66.0 °F 48.9 °F 54% 29.79 in 10.0 mi South 9.2 mph - N/A   Clear
2:58 AM 64.0 °F 50.2 °F 61% 29.79 in 10.0 mi South 4.6 mph - N/A   Clear
3:58 AM 65.8 °F 50.4 °F 57% 29.77 in 10.0 mi South 6.9 mph - N/A   Clear
4:58 AM 63.5 °F 51.3 °F 64% 29.77 in 10.0 mi South 6.9 mph - N/A   Clear
5:58 AM 61.9 °F 51.4 °F 69% 29.75 in 10.0 mi South 6.9 mph - N/A   Clear
6:58 AM 60.1 °F 51.8 °F 74% 29.76 in 10.0 mi SSE 2.3 mph - N/A   Clear
7:58 AM 60.1 °F 52.5 °F 76% 29.77 in 10.0 mi East 1.2 mph - N/A   Clear
8:58 AM 62.1 °F 54.1 °F 75% 29.78 in 10.0 mi South 2.3 mph - N/A   Clear
9:58 AM 67.5 °F 54.1 °F 62% 29.80 in 10.0 mi North 5.8 mph - N/A   Clear
10:58 AM 70.7 °F 55.4 °F 58% 29.80 in 10.0 mi North 5.8 mph - N/A   Clear
11:58 AM 73.2 °F 55.2 °F 53% 29.79 in 10.0 mi NNE 15.0 mph - N/A   Clear
12:58 PM 73.2 °F 54.3 °F 51% 29.81 in 10.0 mi NE 16.1 mph 23.0 mph N/A   Clear
1:58 PM 74.5 °F 56.1 °F 53% 29.82 in 10.0 mi NNE 19.6 mph 26.5 mph N/A   Clear
2:58 PM 73.8 °F 55.2 °F 52% 29.84 in 10.0 mi NE 17.3 mph 26.5 mph 0.00 in Rain Light Rain
3:15 PM 68.0 °F 53.6 °F 60% 29.86 in 10.0 mi North 18.4 mph 26.5 mph N/A   Scattered Clouds
3:58 PM 64.0 °F 54.9 °F 72% 29.91 in 10.0 mi NNE 18.4 mph 29.9 mph 0.00 in   Partly Cloudy
4:58 PM 66.2 °F 49.6 °F 55% 29.94 in 10.0 mi NE 17.3 mph - N/A   Partly Cloudy
5:58 PM 68.7 °F 48.6 °F 49% 29.96 in 10.0 mi NE 16.1 mph 23.0 mph N/A   Clear
6:58 PM 67.8 °F 50.4 °F 54% 29.98 in 10.0 mi ENE 10.4 mph - N/A   Clear
7:58 PM 65.5 °F 47.8 °F 53% 30.00 in 10.0 mi NE 8.1 mph - N/A   Clear
8:58 PM 61.5 °F 48.2 °F 62% 30.04 in 10.0 mi NE 15.0 mph - N/A   Clear
9:58 PM 59.2 °F 46.8 °F 63% 30.07 in 10.0 mi NE 12.7 mph - N/A   Clear
10:58 PM 56.1 °F 46.4 °F 70% 30.11 in 10.0 mi NNE 10.4 mph - N/A   Clear
11:58 PM 53.1 °F 46.4 °F 78% 30.14 in 10.0 mi NNE 10.4 mph - N/A   Clear